Location: St. Louis
(38.6270°N, 90.1994°W)
Time: 10:07:32
(UTC-06:00)

Vanguard 2 Rocket - Pass Details

Date: 03 December 2021
Orbit: 553 x 3325 km, 32.9° (Epoch: 23 January)

Event Time Altitude Azimuth Distance (km) Brightness Sun altitude
Rises 23:19:56 0° 276° (W) 4,904 - -72.3°
Reaches altitude 10° 23:22:57 10° 268° (W) 4,246 - -72.6°
Maximum altitude 23:34:08 40° 205° (SSW) 3,417 - -73.2°
Drops below altitude 10° 23:50:43 10° 144° (SE) 6,172 - -73.6°
Sets 23:56:18 0° 138° (SE) 7,295 - -73.6°
